Flag for Lithuania Weather past 2 weeks in Kaunas, Lithuania

Now
57 °F

Passing clouds.


Feels Like: 57 °F
Forecast: 62 / 89 °F
Wind: 3 mph from Northeast

Location: Kaunas

Current Time: Aug 4, 2015 at 6:47:58 AM

Latest Report: Aug 4, 2015 at 6:20 AM


Visibility: N/A

Pressure: 30.15 "Hg

Humidity: 94%

Dew point: 55 °F

Location of KaunasLocation

Historic Weather in Kaunas — Graph

°F

Kaunas temperature yesterday

Maximum temperature yesterday: 82 °F (at 3:20 PM)
Minimum temperature yesterday: 48 °F (at 5:20 AM)
Average temperature yesterday: 68 °F

Past Weeks' High & Low Weather Summary

 TemperatureHumidityPressure
High82 °F (Aug 3, 3:20 PM)100% (Aug 2, 3:20 AM)30.24 "Hg (Aug 2, 3:20 AM)
Low45 °F (Aug 2, 3:20 AM)32% (Aug 3, 4:50 PM)29.50 "Hg (Jul 20, 5:20 AM)
Average62 °F70%29.86 "Hg
* Reported Jul 20 5:20 AM — Aug 4 5:50 AM, Kaunas, Weather by CustomWeather, © 2015

Note: Actual official high and low records may vary slightly from our data, if they occured in-between our weather recording intervals... More about our weather records

Advertising

Kaunas weather history for previous 24 hours

 ConditionsComfort  
Time TempWeatherWind HumidityBarometerVisibility
5:50 AM
Tue, Aug 4
55 °FClear.2 mph94%30.15 "Hg10 mi
5:20 AM55 °FClear.No wind94%30.12 "Hg10 mi
4:50 AM55 °FClear.No wind94%30.12 "Hg10 mi
4:20 AM57 °FClear.No wind94%30.12 "Hg10 mi
3:50 AM57 °FClear.No wind94%30.12 "Hg10 mi
3:20 AM57 °FCool.No wind94%30.12 "HgN/A
2:50 AM59 °FCool.No wind88%30.12 "HgN/A
2:20 AM59 °FCool.No wind88%30.12 "HgN/A
1:50 AM61 °FCool.No wind83%30.12 "HgN/A
1:20 AM61 °FCool.1 mph83%30.12 "HgN/A
12:20 AM61 °FCool.No wind83%30.12 "HgN/A
11:50 PM
Mon, Aug 3
64 °FClear.2 mph78%30.12 "Hg10 mi
11:20 PM63 °FClear.1 mph77%30.12 "Hg10 mi
10:50 PM66 °FClear.1 mph73%30.12 "Hg10 mi
10:20 PM70 °FSunny.No wind60%30.12 "Hg10 mi
9:50 PM70 °FSunny.2 mph60%30.12 "Hg10 mi
9:20 PM73 °FSunny.2 mph50%30.12 "Hg10 mi
8:50 PM77 °FSunny.2 mph44%30.12 "Hg10 mi
8:20 PM79 °FPassing clouds.5 mph39%30.12 "HgN/A
7:50 PM79 °FPassing clouds.3 mph42%30.09 "HgN/A
7:20 PM81 °FPassing clouds.5 mph39%30.12 "HgN/A
6:50 PM81 °FPassing clouds.7 mph37%30.12 "HgN/A
6:20 PM81 °FPassing clouds.5 mph37%30.12 "HgN/A
5:50 PM82 °FPassing clouds.5 mph35%30.12 "HgN/A
5:20 PM82 °FSunny.2 mph40%30.12 "Hg10 mi
4:50 PM82 °FSunny.3 mph32%30.12 "Hg10 mi
4:20 PM81 °FPassing clouds.6 mph37%30.12 "HgN/A
3:20 PM82 °FSunny.6 mph35%30.12 "Hg10 mi
2:50 PM81 °FSunny.6 mph37%30.12 "Hg10 mi
2:20 PM81 °FPassing clouds.3 mph39%30.12 "HgN/A
1:50 PM81 °FPassing clouds.5 mph37%30.12 "HgN/A
1:20 PM79 °FPassing clouds.6 mph39%30.12 "HgN/A
12:50 PM79 °FPassing clouds.6 mph45%30.12 "HgN/A
12:20 PM79 °FPassing clouds.7 mph42%30.12 "HgN/A
11:50 AM77 °FPassing clouds.7 mph44%30.12 "HgN/A
11:20 AM77 °FPassing clouds.7 mph44%30.12 "HgN/A
10:50 AM75 °FSunny.2 mph54%30.12 "Hg10 mi
10:20 AM73 °FPassing clouds.6 mph50%30.12 "HgN/A
9:50 AM72 °FPassing clouds.7 mph53%30.12 "HgN/A
9:20 AM66 °FPassing clouds.3 mph68%30.12 "HgN/A
8:50 AM64 °FSunny.5 mph68%30.12 "Hg10 mi
8:20 AM63 °FPassing clouds.5 mph73%30.12 "HgN/A
7:50 AM59 °FSunny.No wind82%30.12 "Hg10 mi
7:20 AM57 °FSunny.No wind82%30.12 "Hg10 mi
6:50 AM52 °FSunny.2 mph88%30.12 "Hg10 mi
6:20 AM52 °FClear.2 mph82%30.12 "Hg10 mi
Weather by CustomWeather, © 2015

See weather overviewHow to use our weather pages